Location: *
(50.5492°N, 7.7469°E)
Time: 05:52:44
(UTC+00:00)

STARLINK-59 - Pass Details

Date: 21 October 2019
Orbit: 548 x 551 km, 53.0° (Epoch: 13 November)

Event Time Altitude Azimuth Distance (km) Brightness Sun altitude
Rises 19:04:33 0° 287° (WNW) 2,721 8.5 -25.8°
Reaches altitude 10° 19:06:48 10° 289° (WNW) 1,826 7.3 -26.1°
Enters shadow 19:09:54 49° 298° (WNW) 717 4.5 -26.6°
